EZY575B EGPH-EGAC

Flight info

Callsign EZY575B
Flight time 0h 29m
Altitude 18000
Route GOSAM P600 BLACA DCT MAGEE
Aircraft A320/M-SDE3FGHIRWY/LB1

Departure

Time 2026-05-07 17:25
Airport Edinburgh Airport (EGPH)

Arrival

Time 2026-05-07 17:55
Airport George Best Belfast City Airport (EGAC)
Time Latitude Longitude Altitude Speed Heading
2026-05-07 16:56 55.94919 -3.36428 117 ft 0 kts 148°
2026-05-07 16:56 55.94919 -3.36429 117 ft 0 kts 148°
2026-05-07 16:56 55.94920 -3.36429 116 ft 0 kts 149°
2026-05-07 17:15 55.94921 -3.36430 116 ft 1 kts 149°
2026-05-07 17:15 55.94941 -3.36454 112 ft 4 kts 141°
2026-05-07 17:16 55.94960 -3.36487 112 ft 4 kts 123°
2026-05-07 17:16 55.94968 -3.36526 112 ft 4 kts 73°
2026-05-07 17:16 55.94964 -3.36544 113 ft 1 kts 59°
2026-05-07 17:18 55.94964 -3.36545 113 ft 0 kts 59°
2026-05-07 17:19 55.94965 -3.36541 113 ft 1 kts 59°
2026-05-07 17:20 55.94973 -3.36519 112 ft 4 kts 59°
2026-05-07 17:20 55.94996 -3.36450 112 ft 9 kts 59°
2026-05-07 17:20 55.95038 -3.36386 115 ft 7 kts
2026-05-07 17:20 55.95083 -3.36403 115 ft 6 kts
2026-05-07 17:21 55.95114 -3.36346 114 ft 9 kts 57°
2026-05-07 17:21 55.95161 -3.36210 114 ft 16 kts 60°
2026-05-07 17:21 55.95220 -3.36028 116 ft 17 kts 58°
2026-05-07 17:21 55.95277 -3.35860 115 ft 15 kts 59°
2026-05-07 17:22 55.95329 -3.35707 114 ft 14 kts 59°
2026-05-07 17:22 55.95375 -3.35569 115 ft 12 kts 59°
2026-05-07 17:22 55.95415 -3.35448 114 ft 10 kts 59°
2026-05-07 17:22 55.95460 -3.35400 114 ft 6 kts 348°
2026-05-07 17:23 55.95471 -3.35410 114 ft 0 kts 331°
2026-05-07 17:23 55.95498 -3.35439 112 ft 11 kts 327°
2026-05-07 17:24 55.95562 -3.35516 113 ft 8 kts 316°
2026-05-07 17:24 55.95554 -3.35613 113 ft 9 kts 246°
2026-05-07 17:24 55.95512 -3.35739 113 ft 22 kts 239°
2026-05-07 17:24 55.95301 -3.36355 111 ft 91 kts 238°
2026-05-07 17:25 55.94889 -3.37570 115 ft 139 kts 236°
2026-05-07 17:25 55.94387 -3.39093 655 ft 143 kts 237°
2026-05-07 17:25 55.93865 -3.40632 1299 ft 148 kts 234°
2026-05-07 17:25 55.93278 -3.42295 1628 ft 169 kts 235°
2026-05-07 17:26 55.92604 -3.44209 1905 ft 196 kts 235°
2026-05-07 17:26 55.91815 -3.46439 2203 ft 229 kts 235°
2026-05-07 17:26 55.90947 -3.48895 3028 ft 239 kts 235°
2026-05-07 17:26 55.90281 -3.51664 3892 ft 251 kts 255°
2026-05-07 17:27 55.89983 -3.54708 4997 ft 250 kts 257°
2026-05-07 17:27 55.89691 -3.57738 5694 ft 254 kts 257°
2026-05-07 17:27 55.89401 -3.60841 5932 ft 254 kts 258°
2026-05-07 17:27 55.89110 -3.63936 6004 ft 253 kts 258°
2026-05-07 17:28 55.88811 -3.67047 6218 ft 257 kts 257°
2026-05-07 17:28 55.88503 -3.70176 7183 ft 257 kts 257°
2026-05-07 17:28 55.88192 -3.73317 8099 ft 259 kts 257°
2026-05-07 17:28 55.87872 -3.76505 8968 ft 263 kts 257°
2026-05-07 17:29 55.87547 -3.79739 9836 ft 267 kts 257°
2026-05-07 17:29 55.87214 -3.83073 10316 ft 284 kts 257°
2026-05-07 17:29 55.86855 -3.86672 10635 ft 304 kts 257°
2026-05-07 17:29 55.86488 -3.90379 11300 ft 311 kts 257°
2026-05-07 17:30 55.86111 -3.94186 12108 ft 314 kts 257°
2026-05-07 17:30 55.85727 -3.98029 12935 ft 317 kts 257°
2026-05-07 17:30 55.85339 -4.01905 13721 ft 320 kts 257°
2026-05-07 17:30 55.84944 -4.05823 14382 ft 323 kts 257°
2026-05-07 17:31 55.84483 -4.09758 15033 ft 325 kts 249°
2026-05-07 17:31 55.83497 -4.13359 15661 ft 325 kts 233°
2026-05-07 17:31 55.81943 -4.16277 16311 ft 327 kts 217°
2026-05-07 17:31 55.80065 -4.18592 16974 ft 330 kts 214°
2026-05-07 17:32 55.78186 -4.20875 17630 ft 333 kts 214°
2026-05-07 17:32 55.76273 -4.23233 17894 ft 336 kts 214°
2026-05-07 17:32 55.74391 -4.25579 17941 ft 324 kts 215°
2026-05-07 17:32 55.72561 -4.27866 17942 ft 320 kts 215°
2026-05-07 17:33 55.70745 -4.30131 17929 ft 319 kts 215°
2026-05-07 17:33 55.68929 -4.32395 17941 ft 320 kts 215°
2026-05-07 17:33 55.67106 -4.34658 17942 ft 320 kts 214°
2026-05-07 17:33 55.65285 -4.36913 17940 ft 320 kts 214°
2026-05-07 17:34 55.63460 -4.39166 17944 ft 320 kts 214°
2026-05-07 17:34 55.61658 -4.41389 17941 ft 320 kts 214°
2026-05-07 17:34 55.59833 -4.43637 17942 ft 320 kts 214°
2026-05-07 17:34 55.58005 -4.45883 17942 ft 320 kts 214°
2026-05-07 17:35 55.56180 -4.48123 17951 ft 320 kts 215°
2026-05-07 17:35 55.54352 -4.50364 17963 ft 320 kts 215°
2026-05-07 17:35 55.52525 -4.52599 17963 ft 320 kts 215°
2026-05-07 17:35 55.50696 -4.54834 17963 ft 320 kts 215°
2026-05-07 17:36 55.48893 -4.57038 17963 ft 320 kts 215°
2026-05-07 17:36 55.47068 -4.59270 17964 ft 320 kts 215°
2026-05-07 17:36 55.45242 -4.61504 17963 ft 319 kts 215°
2026-05-07 17:36 55.43414 -4.63729 17945 ft 319 kts 214°
2026-05-07 17:37 55.41586 -4.65954 17940 ft 319 kts 215°
2026-05-07 17:37 55.39757 -4.68182 17940 ft 320 kts 215°
2026-05-07 17:37 55.37924 -4.70409 17937 ft 320 kts 214°
2026-05-07 17:37 55.36088 -4.72631 17940 ft 321 kts 214°
2026-05-07 17:38 55.34252 -4.74850 17941 ft 317 kts 214°
2026-05-07 17:38 55.32493 -4.76977 17825 ft 306 kts 214°
2026-05-07 17:38 55.30716 -4.78938 17561 ft 300 kts 208°
2026-05-07 17:38 55.28861 -4.80569 17194 ft 297 kts 207°
2026-05-07 17:39 55.27019 -4.82184 16824 ft 295 kts 207°
2026-05-07 17:39 55.25190 -4.83794 16454 ft 294 kts 207°
2026-05-07 17:39 55.23367 -4.85398 16078 ft 292 kts 207°
2026-05-07 17:39 55.21552 -4.86992 15800 ft 292 kts 207°
2026-05-07 17:40 55.19736 -4.88583 15542 ft 292 kts 207°
2026-05-07 17:40 55.17950 -4.90144 15309 ft 289 kts 207°
2026-05-07 17:40 55.16162 -4.91704 14981 ft 287 kts 207°
2026-05-07 17:40 55.14381 -4.93257 14633 ft 286 kts 207°
2026-05-07 17:41 55.12604 -4.94811 14280 ft 286 kts 208°
2026-05-07 17:41 55.10825 -4.96367 13980 ft 285 kts 208°
2026-05-07 17:41 55.09053 -4.97920 13938 ft 286 kts 207°
2026-05-07 17:41 55.07274 -4.99476 13944 ft 286 kts 207°
2026-05-07 17:42 55.05492 -5.01031 13950 ft 286 kts 207°
2026-05-07 17:42 55.03698 -5.02592 13484 ft 293 kts 207°
2026-05-07 17:42 55.01866 -5.04186 12771 ft 301 kts 207°
2026-05-07 17:42 54.99988 -5.05816 12303 ft 301 kts 207°
2026-05-07 17:43 54.98116 -5.07436 11912 ft 298 kts 207°
2026-05-07 17:43 54.96297 -5.09008 11745 ft 284 kts 207°
2026-05-07 17:43 54.94556 -5.10507 11239 ft 276 kts 207°
2026-05-07 17:43 54.92849 -5.11975 10641 ft 272 kts 207°
2026-05-07 17:44 54.91163 -5.13430 10024 ft 269 kts 208°
2026-05-07 17:44 54.89561 -5.15076 9382 ft 267 kts 219°
2026-05-07 17:44 54.88298 -5.17396 8916 ft 269 kts 235°
2026-05-07 17:44 54.87445 -5.20266 8490 ft 269 kts 249°
2026-05-07 17:45 54.86840 -5.23319 8074 ft 268 kts 249°
2026-05-07 17:45 54.86228 -5.26348 7701 ft 265 kts 249°
2026-05-07 17:45 54.85615 -5.29363 7239 ft 264 kts 249°
2026-05-07 17:45 54.85002 -5.32366 6854 ft 262 kts 249°
2026-05-07 17:46 54.84393 -5.35348 6437 ft 262 kts 249°
2026-05-07 17:46 54.83787 -5.38314 6005 ft 261 kts 249°
2026-05-07 17:46 54.83184 -5.41259 5590 ft 259 kts 249°
2026-05-07 17:46 54.82583 -5.44190 5197 ft 257 kts 249°
2026-05-07 17:47 54.82000 -5.47032 4827 ft 253 kts 249°
2026-05-07 17:47 54.81413 -5.49881 4319 ft 247 kts 249°
2026-05-07 17:47 54.80847 -5.52621 3927 ft 234 kts 249°
2026-05-07 17:47 54.80329 -5.55139 3877 ft 211 kts 249°
2026-05-07 17:48 54.79855 -5.57446 3802 ft 196 kts 249°
2026-05-07 17:48 54.79413 -5.59595 3723 ft 184 kts 248°
2026-05-07 17:48 54.78984 -5.61670 3668 ft 180 kts 248°
2026-05-07 17:48 54.78572 -5.63630 3594 ft 167 kts 247°
2026-05-07 17:49 54.78430 -5.64303 3561 ft 163 kts 247°
2026-05-07 17:49 54.78427 -5.64317 3560 ft 163 kts 247°
2026-05-07 17:49 54.78053 -5.66087 3497 ft 151 kts 248°
2026-05-07 17:49 54.77611 -5.67662 3424 ft 141 kts 235°
2026-05-07 17:50 54.76936 -5.68829 3366 ft 136 kts 220°
2026-05-07 17:50 54.76185 -5.69855 3293 ft 138 kts 218°
2026-05-07 17:50 54.75410 -5.70850 3156 ft 139 kts 217°
2026-05-07 17:50 54.74633 -5.71816 2990 ft 138 kts 215°
2026-05-07 17:51 54.73857 -5.72766 2813 ft 136 kts 215°
2026-05-07 17:51 54.73087 -5.73700 2616 ft 135 kts 214°
2026-05-07 17:51 54.72328 -5.74618 2447 ft 135 kts 214°
2026-05-07 17:51 54.71554 -5.75551 2265 ft 136 kts 213°
2026-05-07 17:52 54.70786 -5.76477 2074 ft 134 kts 212°
2026-05-07 17:52 54.70028 -5.77390 1919 ft 132 kts 213°
2026-05-07 17:52 54.69273 -5.78298 1717 ft 132 kts 212°
2026-05-07 17:52 54.68520 -5.79202 1523 ft 131 kts 213°
2026-05-07 17:53 54.67772 -5.80101 1345 ft 131 kts 212°
2026-05-07 17:53 54.67020 -5.81004 1164 ft 131 kts 210°
2026-05-07 17:53 54.66265 -5.81910 974 ft 131 kts 210°
2026-05-07 17:53 54.65508 -5.82820 783 ft 131 kts 208°
2026-05-07 17:54 54.64761 -5.83711 591 ft 133 kts 211°
2026-05-07 17:54 54.64017 -5.84593 439 ft 129 kts 212°
2026-05-07 17:54 54.63285 -5.85494 266 ft 130 kts 211°
2026-05-07 17:54 54.62537 -5.86392 94 ft 131 kts 210°
2026-05-07 17:55 54.61840 -5.87208 19 ft 98 kts 214°
2026-05-07 17:55 54.61531 -5.87583 14 ft 21 kts 215°
2026-05-07 17:55 54.61376 -5.87767 14 ft 19 kts 214°
2026-05-07 17:55 54.61306 -5.87770 16 ft 11 kts 136°
2026-05-07 17:56 54.61263 -5.87669 16 ft 5 kts 122°
2026-05-07 17:56 54.61253 -5.87619 18 ft 5 kts 86°
2026-05-07 17:56 54.61287 -5.87564 18 ft 7 kts 34°
2026-05-07 17:56 54.61324 -5.87520 20 ft 5 kts 34°
2026-05-07 17:57 54.61345 -5.87495 20 ft 2 kts 34°
2026-05-07 17:57 54.61349 -5.87491 20 ft 1 kts 35°
2026-05-07 17:57 54.61397 -5.87418 21 ft 8 kts 51°
2026-05-07 17:57 54.61429 -5.87345 21 ft 7 kts 40°
2026-05-07 17:58 54.61468 -5.87301 22 ft 7 kts 34°
2026-05-07 17:58 54.61505 -5.87259 21 ft 5 kts 34°
2026-05-07 17:58 54.61531 -5.87225 21 ft 4 kts 38°
2026-05-07 17:58 54.61542 -5.87191 21 ft 2 kts 94°
2026-05-07 17:59 54.61534 -5.87176 21 ft 2 kts 134°
2026-05-07 17:59 54.61517 -5.87159 21 ft 3 kts 151°
2026-05-07 17:59 54.61509 -5.87153 21 ft 2 kts 155°
2026-05-07 17:59 54.61503 -5.87148 24 ft 0 kts 155°
2026-05-07 18:00 54.61501 -5.87146 21 ft 0 kts 155°
2026-05-07 18:00 54.61500 -5.87145 21 ft 0 kts 155°